sat.trackr.live / text

‹ back to catalog

ONEWEB-0297

NORAD 49086 · 2021-075M

PAYLOAD ACTIVE UNKNOWN

§ Identity

Operator
Country
UK
Launch date
2021-08-21
Launch site
TYMSC
Launch vehicle
Mass (kg)
RCS (m²)

Purposes: comms

External: N2YO · Heavens-Above · Gunter

§ Orbital elements

Epoch: 2026-05-25T02:07:10.176672Z

Period
109.72 min
Inclination
87.8948°
Eccentricity
0.0001856
Mean motion
13.12443433 rev/d
Perigee alt
1,212.3 km
Apogee alt
1,215.1 km
Semi-major
7,591.9 km
B*
-2.3127e-4
RAAN
355.2731°
Arg perigee
89.1787°
Mean anomaly
270.9554°
Rev number
23,215

§ Raw data

ONEWEB-02971 49086U 21075M   26145.08831223 -.00000070  00000+0 -23127-3 0  99932 49086  87.8948 355.2731 0001856  89.1787 270.9554 13.12443433232152

JSON: /api/v1/satellites/49086 · /tle

For live sub-satellite position, see the globe view (requires WebGL).

§ Visibility from observer

Set your observer location to see the next 7 days of passes ≥ 10°. The values pass through the URL so the page stays shareable.

No JS? Fill the form by hand. The geolocation button needs JavaScript.